Location: Pl�tzky
(52.0521°N, 11.8020°E)
Time: 14:12:54
(UTC+00:00)

Cosmos 1844 Rocket - Pass Details

Date: 22 November 2019
Orbit: 826 x 843 km, 71.0° (Epoch: 07 December)

Event Time Altitude Azimuth Distance (km) Brightness Sun altitude
Rises 17:44:12 0° 330° (NNW) 3,379 6.2 -22.7°
Reaches altitude 10° 17:46:43 10° 335° (NNW) 2,441 5.3 -23.0°
Enters shadow 17:51:58 51° 44° (NE) 1,039 2.8 -23.9°
